Regional Weather Roundup
Issued by NWS

Home | Current Version | Previous Version | Text Only | Print | Product List | Glossary On
Versions: 1 2 3 4 5 6 7 8 9 10 11 12 13 14 15 16 17 18 19 20 21 22 23 24 25 26 27 28 29 30 31 32 33 34 35 36 37 38 39 40 41 42 43 44 45 46 47 48 49 50
000
ASUS43 KMKX 310111
RWRWI

WISCONSIN REGIONAL WEATHER ROUNDUP
NATIONAL WEATHER SERVICE MILWAUKEE/SULLIVAN WI
800 PM CDT SUN AUG 30 2015

NOTE: "FAIR" INDICATES FEW OR NO CLOUDS BELOW 12,000 FEET WITH NO
SIGNIFICANT WEATHER AND/OR OBSTRUCTIONS TO VISIBILITY.

WIZ001-002-006>008-014>016-023>028-310200-
NORTHWEST WISCONSIN

CITY           SKY/WX    TMP DP  RH WIND       PRES   REMARKS
SUPERIOR ARPT  PTCLDY    72  64  78 SW5       29.86R
ASHLAND        CLEAR     69  64  84 S7        29.89R
HAYWARD        CLEAR     69  64  84 S6        29.93S
SIREN          PTCLDY    72  64  76 S7        29.91S
CUMBERLAND     CLEAR     66  64  94 S7        29.95R
RICE LAKE      CLEAR     67  63  86 SE5       29.96S
CHETEK         CLEAR    N/A N/A N/A SE3       29.95S
LADYSMITH      CLEAR     68  64  85 S5        29.97S
EAU CLAIRE     CLEAR     70  64  81 S6        29.95S
MENOMONIE      CLEAR     69  64  84 S5        29.96R
NEW RICHMOND   CLEAR     70  64  80 S8        29.94S
OSCEOLA        CLEAR     71  67  87 SE6       29.95R
$$

WIZ003>005-009-010-017-018-310200-
NORTH CENTRAL WISCONSIN

CITY           SKY/WX    TMP DP  RH WIND       PRES   REMARKS
MANITOWISH WTR CLEAR     68  64  88 S6        29.95S
ARBOR VITAE    CLEAR     69  65  87 S5        29.96S
WOODRUFF       CLEAR     69  65  87 S5        29.96S
RHINELANDER    CLEAR     69  62  78 SW7       29.98S
EAGLE RIVER    CLEAR     69  60  74 SW5       29.96R
LAND O LAKES   CLEAR     69  63  79 CALM      29.96S
PHILLIPS       PTCLDY    70  64  83 SW5       29.96S
TOMAHAWK       CLEAR     65  62  90 CALM      29.98R
MEDFORD        CLEAR     66  63  91 S7        29.99R
MERRILL        CLEAR     70  64  83 CALM      29.99R
$$

WIZ029-030-035-036-043>047-310200-
CENTRAL WISCONSIN

CITY           SKY/WX    TMP DP  RH WIND       PRES   REMARKS
WAUSAU         CLEAR     70  63  78 SW6       29.97S
MOSINEE        CLEAR     66  64  94 S6        30.00R
MARSHFIELD     CLEAR     68  61  78 SW6       29.99R
STEVENS POINT  CLEAR     67  62  85 S6        29.99S
WAUPACA        CLEAR     69  67  94 CALM      29.99S
WAUTOMA        CLEAR     69  67  93 CALM      30.00R
WISC RAPIDS    CLEAR     68  63  84 S3        30.00S
CAMP DOUGLAS   CLEAR     69  69 100 SW3       29.99R
$$

WIZ011>013-019>022-031-037>040-048>050-310200-
NORTHEAST WISCONSIN

CITY           SKY/WX    TMP DP  RH WIND       PRES   REMARKS
ANTIGO         CLEAR     64  62  93 S5        29.99S
SHAWANO        CLEAR     70  65  83 CALM      29.98S
OCONTO         CLEAR     67  67 100 CALM      29.96S
STURGEON BAY   CLEAR     64  59  82 S5        30.00S
GREEN BAY      CLEAR     67  64  90 S5        29.98S
MANITOWOC      CLEAR     63  60  90 MISG      30.00S
APPLETON       CLEAR     66  63  88 S7        29.98S
CLINTONVILLE   CLEAR     68  63  83 S5        29.98S
OSHKOSH        CLEAR     64  62  93 S5        30.00R
$$

WIZ032>034-041-042-053>061-310200-
SOUTHWEST WISCONSIN

CITY           SKY/WX    TMP DP  RH WIND       PRES   REMARKS
LA CROSSE      CLEAR     70  64  81 S5        29.98R
SPARTA         CLEAR     67  63  85 CALM      30.00S
VIROQUA          N/A     66  66  99 S3        30.01S
BOSCOBEL       CLEAR     67  64  90 CALM      30.00S
PRAIRIE DU CHI CLEAR     68  64  85 CALM      29.99S
PLATTEVILLE    CLEAR     69  66  92 CALM      30.02R
$$

WIZ056-057-062-063-064-067-068-310200-
SOUTH CENTRAL WISCONSIN

CITY           SKY/WX    TMP DP  RH WIND       PRES   REMARKS
REEDSBURG      CLEAR     68  65  90 CALM      30.00R
BARABOO/DELLS  CLEAR     68  63  83 SW3       30.00S
LONE ROCK      CLEAR     68  64  87 W3        30.01S
MINERAL POINT  CLEAR     68  64  88 CALM      30.02S
MADISON        MOCLDY    69  64  84 SW3       30.00S
MIDDLETON      CLEAR     70  65  84 CALM      30.01S
WATERTOWN      CLEAR     64  64 100 CALM      30.01S
MONROE         CLEAR     68  64  88 S3        30.02R
JANESVILLE     CLEAR     70  64  83 S3        30.01S
$$

WIZ051-052-058>065-066-070>072-310200-
SOUTHEAST WISCONSIN

CITY           SKY/WX    TMP DP  RH WIND       PRES   REMARKS
MILWAUKEE      CLEAR     65  62  90 S7        30.02R
WAUKESHA       CLEAR     64  63  94 CALM      30.03R
MILWAUKEE/TIMM CLEAR     66  61  82 CALM      30.02S
RACINE         CLEAR     65  62  90 S3        30.04R
BURLINGTON     CLEAR     63  61  94 S3        30.02S
KENOSHA        CLEAR     65  62  90 SE6       30.03S
FOND DU LAC    CLEAR     66  63  90 S5        30.00S
SHEBOYGAN      CLEAR     63  61  93 S5        30.01R
WEST BEND      CLEAR     64  61  88 CALM      30.02R
JUNEAU         CLEAR     66  63  89 CALM      30.02S
$$

LSZ147-162-310200-
LAKE SUPERIOR

STATION/POSITION TIME  TEMP    WIND        PRES    WAVE
                       AIR SEA DIR/SP/G            HT/PER
                 (UTC) (F)     (DEG/KT/KT) (MB)    (FT/S)
W MID LAKE BUOY  0050   62 56  160/  4/  4 1010.7S   1
DEVILS ISLAND    0100   74     200/ 10/ 12 1010.6S
PORT WING        0000   77     190/  4/  6 1011.2S
SAXON HARBOR     0000   78     200/  7/ 11 1010.8
$$

LMZ867-665-643>646-310200-
LAKE MICHIGAN

STATION/POSITION TIME  TEMP    WIND        PRES    WAVE
                       AIR SEA DIR/SP/G            HT/PER
                 (UTC) (F)     (DEG/KT/KT) (MB)    (FT/S)
CHAMBERS ISLAND  0000   69     190/  7/ 15 1013.9F
S GREEN BAY BUOY 0100   66 64  210/  8/  8 1016.2R
N MID LAKE BUOY  0050   65 65  210/ 16/ 17 1014.0R   2/ 4
NORTHPORT PIER   0000   66     170/  4/  6 1013.9F
SHEBOYGAN LAKESH 0100   61     180/ 12/ 12 1016.5R
PORT WASHINGTON  0000   62     200/  4/  7 1016.9S
ATWATER BUOY     0100   55 51  190/  2/  4 1017.9R
MILWAUKEE LAKESH 0000   59     150/  9/  9   N/A
S MID LAKE BUOY  0050   67 68  140/  4/  6 1016.6R   0
KENOSHA   LAKESH 0100   64     180/  8/  9 1016.6R
$$

TC  - TEMPERATURE IN CELSIUS
VSB - VISIBILITY IN STATUTE MILES
WCI - WIND CHILL INDEX
HX  - HEAT INDEX



USA.gov is the U.S. government's official web portal to all federal, state and local government web resources and services.